User: anonymous
Location: Brno
(49.2000°N, 16.6330°E)
Time: 11:47:45
(UTC+02:00)
Language:

Cosmos 1459 Rocket - Orbit

View from above orbital plane
View from above orbital plane
View from above satellite
View from above satellite

Ground track
Ground track

The orbit data is extracted from the following two-line orbital elements,

1 14059U 83042B   14272.11073046  .00000038  00000-0  22514-4 0  4033
2 14059 082.9695 078.2196 0043199 171.3582 325.6485 13.78462822579070
Epoch (UTC): 29 September 2014 02:39:27
Eccentricity: 0.0043199
inclination: 82.9695°
perigee height: 937 km
apogee height: 1001 km
right ascension of ascending node: 78.2196°
argument of perigee: 171.3582°
revolutions per day: 13.78462822
mean anomaly at epoch: 325.6485°
orbit number at epoch: 57907

The dashed part of the orbit path shows where the satellite is in the earth's shadow,  

DLR